CAPE
0 0 0 0 8 14 17 7 11 2 14 10 11 25 5 10 3 3 4 23 19 33 15 12 32 18 28 25 17 22 20 13 4 5 0 7 8 8 7 3 0 1 2
0 0 0 10 38 12 5 17 40 3 8 38 20 37 17 21 10 13 15 14 19 26 7 13 2 10 14 26 22 9 11 4 11 0 0 2 6 7 2 3 3 1 2
0 0 0 10 7 3 9 18 11 21 21 9 5 3 3 16 2 10 10 12 10 17 12 5 4 13 6 10 13 5 16 12 10 8 4 0 0 8 4 2 0 3 6
0 0 0 8 2 7 6 12 6 6 4 4 3 11 1 6 6 9 7 8 5 9 5 13 9 9 3 12 2 5 5 10 2 0 0 0 4 9 11 11 10 4 9
0 0 0 3 5 3 6 5 8 6 8 4 5 5 6 8 8 8 8 4 4 4 2 3 4 0 0 0 0 0 1 0 0 0 0 0 0 11 10 22 5 5 10
0 0 2 1 5 7 6 14 5 5 5 8 2 3 2 4 7 3 2 1 1 1 2 1 1 0 0 0 0 0 0 0 0 0 0 0 3 9 5 9 6 6 10
0 0 1 7 7 6 4 5 5 6 3 4 3 3 4 1 0 0 0 0 0 0 0 0 0 0 0 0 0 0 0 0 0 0 0 0 0 8 7 8 6 10 9
0 0 0 2 4 5 2 5 5 5 6 3 2 2 1 0 0 0 0 0 0 0 0 0 0 0 0 0 0 0 0 0 0 0 0 0 1 0 3 5 4 5 4
0 0 0 0 3 5 2 4 2 4 4 1 1 0 0 0 0 0 0 0 0 0 0 0 0 0 0 0 0 0 0 0 0 0 0 0 0 0 0 0 1 1 1
0 0 0 0 0 0 1 2 2 2 2 0 0 0 0 0 0 0 0 0 0 0 0 0 0 0 0 0 0 0 0 0 0 0 0 0 0 0 0 0 0 0 2
0 0 0 0 0 0 0 0 2 2 0 0 0 0 0 0 0 0 0 0 0 0 0 0 0 0 0 0 0 0 0 0 0 0 0 0 0 0 0 0 0 0 0
0 0 0 0 0 0 0 0 0 0 0 0 0 0 0 0 0 0 0 0 0 0 0 0 0 0 0 0 0 0 0 0 0 0 0 0 0 0 0 0 0 0 0
0 0 0 0 0 0 0 0 0 0 0 0 0 0 0 0 0 0 0 0 0 0 0 0 0 0 0 0 0 0 0 0 0 0 0 0 0 0 0 0 0 0 0
0 0 0 0 0 0 0 0 0 0 0 0 0 0 0 0 0 0 0 0 0 0 0 0 0 0 0 0 0 0 0 0 0 0 0 0 0 0 0 0 0 0 0
0 0 0 0 0 0 0 0 0 0 0 0 0 0 0 0 0 0 0 0 0 0 0 0 0 0 0 0 0 0 0 0 0 0 0 0 0 0 0 0 0 0 0
0 0 0 0 0 0 0 0 0 0 0 0 0 0 0 0 0 0 0 0 0 0 0 0 0 0 0 0 0 0 0 0 0 0 0 0 0 0 0 0 0 0 0
0 0 0 0 0 0 0 0 0 0 0 0 0 0 0 0 0 0 0 0 0 0 0 0 0 0 0 0 0 0 0 0 0 0 0 0 0 0 0 0 0 0 0
0 0 0 0 0 0 0 0 0 0 0 0 0 0 0 0 0 0 0 0 0 0 0 0 0 0 0 0 0 0 0 0 0 0 0 0 0 0 0 0 0 0 0
0 0 0 0 0 0 0 0 0 0 0 0 0 0 0 0 0 0 0 0 0 0 0 0 0 0 0 0 0 0 0 0 0 0 0 0 0 0 0 0 0 0 0
0 0 0 0 0 0 0 0 0 0 0 0 0 0 0 0 0 0 0 0 0 0 0 0 0 0 0 0 0 0 0 0 0 0 0 0 0 0 0 0 0 0 0
0 0 0 0 0 0 0 0 0 0 0 0 0 0 0 0 0 0 0 0 0 0 0 0 0 0 0 0 0 0 0 0 0 0 0 0 0 0 0 0 0 0 0
0 0 0 0 0 0 0 0 0 0 0 0 0 0 0 0 0 0 0 0 0 0 0 0 0 0 0 0 0 0 0 0 0 0 0 0 0 0 0 0 0 0 0
0 0 0 0 0 0 0 0 0 0 0 0 0 0 0 0 0 0 0 0 0 0 0 0 0 0 0 0 0 0 0 0 0 0 0 0 0 0 0 0 0 0 0
0 0 0 0 0 0 0 0 0 0 0 0 0 0 0 0 0 0 0 0 0 0 0 0 0 0 0 0 0 0 0 0 0 0 0 0 0 0 0 0 0 0 0
0 0 0 0 0 0 0 0 0 0 0 0 0 0 0 0 0 0 0 0 0 0 0 0 0 0 0 0 0 0 0 0 0 0 0 0 0 0 0 0 0 0 0
0 0 0 0 0 0 0 0 0 0 0 0 0 0 0 0 0 0 0 0 0 0 0 0 0 0 0 0 0 0 0 0 0 0 0 0 0 0 0 0 0 0 0
CIN
-0 -0 -0 -0 -0 -0 -0 -0 -0 -0 -3 -1 -1 -2 -2 -0 -1 -1 -0 -1 -2 -1 -0 -1 -1 -5 -3 -0 -2 -0 -0 -0 -0 -0 -0 -0 -0 -0 -0 -0 -1 -1 -0
-0 -0 -0 -0 -0 -0 -3 -0 -0 -1 -0 -1 -1 -0 -2 -0 -0 -0 -1 -1 -3 -1 -0 -0 -2 -2 -2 -1 -3 -1 -1 -1 -0 -0 -0 -0 -3 -0 -0 -0 -0 -0 -1
-0 -0 -0 -1 -0 -0 -0 -2 -2 -1 -2 -1 -4 -0 -1 -1 -0 -1 -1 -0 -4 -2 -1 -0 -2 -0 -0 -0 -2 -1 -0 -0 -2 -1 -2 -0 -2 -0 -0 -0 -0 -0 -0
-0 -0 -0 -0 -0 -0 -1 -1 -1 -0 -2 -1 -0 -1 -0 -0 -0 -0 -0 -0 -0 -0 -0 -0 -1 -0 -0 -0 -0 -0 -3 -0 -1 -0 -0 -0 -0 -0 -0 -1 -0 -0 -0
-0 -0 -0 -0 -0 -0 -0 -1 -0 -1 -0 -0 -0 -0 -0 -0 -0 -0 -0 -0 -0 -0 -0 -0 -1 -0 -0 -0 -0 -0 -0 -0 -0 -0 -0 -0 -0 -0 -1 -0 -1 -0 -0
-0 -0 -1 -0 -0 -1 -1 -2 -0 -0 -1 -0 -0 -1 -0 -0 -1 -0 -1 -0 -0 -0 -0 -0 -0 -0 -0 -0 -0 -0 -0 -0 -0 -0 -0 -4 -2 -0 -0 -1 -1 -0 -0
-0 -0 -0 -0 -0 -0 -0 -0 -1 -0 -0 -0 -0 -0 -0 -0 -0 -0 -0 -0 -0 -0 -0 -0 -0 -0 -0 -0 -0 -0 -0 -0 -0 -0 -0 -0 -0 -1 -0 -1 -0 -0 -1
-0 -0 -0 -0 -0 -0 -1 -0 -1 -0 -0 -0 -0 -0 -0 -0 -0 -0 -0 -0 -0 -0 -0 -0 -0 -0 -0 -0 -0 -0 -0 -0 -0 -0 -0 -0 -0 -0 -0 -0 -0 -0 -0
-0 -0 -0 -0 -0 -0 -1 -0 -0 -1 -0 -0 -0 -0 -0 -0 -0 -0 -0 -0 -0 -0 -0 -0 -0 -0 -0 -0 -0 -0 -0 -0 -0 -0 -0 -0 -0 -0 -0 -0 -1 -0 -0
-0 -0 -0 -0 -1 -0 -1 -0 -0 -0 -0 -0 -0 -0 -0 -0 -0 -0 -0 -0 -0 -0 -0 -0 -0 -0 -0 -0 -0 -0 -0 -0 -0 -0 -0 -0 -0 -0 -0 -0 -0 -0 -0
-0 -0 -0 -0 -0 -0 -0 -0 -0 -0 -0 -0 -0 -0 -0 -0 -0 -0 -0 -0 -0 -0 -0 -0 -0 -0 -0 -0 -0 -0 -0 -0 -0 -0 -0 -0 -0 -0 -0 -0 -0 -0 -0
-0 -0 -0 -0 -0 -0 -0 -0 -0 -0 -0 -0 -0 -0 -0 -0 -0 -0 -0 -0 -0 -0 -0 -0 -0 -0 -0 -0 -0 -0 -0 -0 -0 -0 -0 -0 -0 -0 -0 -0 -0 -0 -0
-0 -0 -0 -0 -0 -0 -0 -0 -0 -0 -0 -0 -0 -0 -0 -0 -0 -0 -0 -0 -0 -0 -0 -0 -0 -0 -0 -0 -0 -0 -0 -0 -0 -0 -0 -0 -0 -0 -0 -0 -0 -0 -0
-0 -0 -0 -0 -0 -0 -0 -0 -0 -0 -0 -0 -0 -0 -0 -0 -0 -0 -0 -0 -0 -0 -0 -0 -0 -0 -0 -0 -0 -0 -0 -0 -0 -0 -0 -0 -0 -0 -0 -0 -0 -0 -0
-0 -0 -0 -0 -0 -0 -0 -0 -0 -0 -0 -0 -0 -0 -0 -0 -0 -0 -0 -0 -0 -0 -0 -0 -0 -0 -0 -0 -0 -0 -0 -0 -0 -0 -0 -0 -0 -0 -0 -0 -0 -0 -0
-0 -0 -0 -0 -0 -0 -0 -0 -0 -0 -0 -0 -0 -0 -0 -0 -0 -0 -0 -0 -0 -0 -0 -0 -0 -0 -0 -0 -0 -0 -0 -0 -0 -0 -0 -0 -0 -0 -0 -0 -0 -0 -0
-0 -0 -0 -0 -0 -0 -0 -0 -0 -0 -0 -0 -0 -0 -0 -0 -0 -0 -0 -0 -0 -0 -0 -0 -0 -0 -0 -0 -0 -0 -0 -0 -0 -0 -0 -0 -0 -0 -0 -0 -0 -0 -0
-0 -0 -0 -0 -0 -0 -0 -0 -0 -0 -0 -0 -0 -0 -0 -0 -0 -0 -0 -0 -0 -0 -0 -0 -0 -0 -0 -0 -0 -0 -0 -0 -0 -0 -0 -0 -0 -0 -0 -0 -0 -0 -0
-0 -0 -0 -0 -0 -0 -0 -0 -0 -0 -0 -0 -0 -0 -0 -0 -0 -0 -0 -0 -0 -0 -0 -0 -0 -0 -0 -0 -0 -0 -0 -0 -0 -0 -0 -0 -0 -0 -0 -0 -0 -0 -0
-0 -0 -0 -0 -0 -0 -0 -0 -0 -0 -0 -0 -0 -0 -0 -0 -0 -0 -0 -0 -0 -0 -0 -0 -0 -0 -0 -0 -0 -0 -0 -0 -0 -0 -0 -0 -0 -0 -0 -0 -0 -0 -0
-0 -0 -0 -0 -0 -0 -0 -0 -0 -0 -0 -0 -0 -0 -0 -0 -0 -0 -0 -0 -0 -0 -0 -0 -0 -0 -0 -0 -0 -0 -0 -0 -0 -0 -0 -0 -0 -0 -0 -0 -0 -0 -0
-0 -0 -0 -0 -0 -0 -0 -0 -0 -0 -0 -0 -0 -0 -0 -0 -0 -0 -0 -0 -0 -0 -0 -0 -0 -0 -0 -0 -0 -0 -0 -0 -0 -0 -0 -0 -0 -0 -0 -0 -0 -0 -0
-0 -0 -0 -0 -0 -0 -0 -0 -0 -0 -0 -0 -0 -0 -0 -0 -0 -0 -0 -0 -0 -0 -0 -0 -0 -0 -0 -0 -0 -0 -0 -0 -0 -0 -0 -0 -0 -0 -0 -0 -0 -0 -0
-0 -0 -0 -0 -0 -0 -0 -0 -0 -0 -0 -0 -0 -0 -0 -0 -0 -0 -0 -0 -0 -0 -0 -0 -0 -0 -0 -0 -0 -0 -0 -0 -0 -0 -0 -0 -0 -0 -0 -0 -0 -0 -0
-0 -0 -0 -0 -0 -0 -0 -0 -0 -0 -0 -0 -0 -0 -0 -0 -0 -0 -0 -0 -0 -0 -0 -0 -0 -0 -0 -0 -0 -0 -0 -0 -0 -0 -0 -0 -0 -0 -0 -0 -0 -0 -0
-0 -0 -0 -0 -0 -0 -0 -0 -0 -0 -0 -0 -0 -0 -0 -0 -0 -0 -0 -0 -0 -0 -0 -0 -0 -0 -0 -0 -0 -0 -0 -0 -0 -0 -0 -0 -0 -0 -0 -0 -0 -0 -0
Wind_Speed
16 18 19 18 18 18 19 19 19 19 18 18 17 18 20 20 20 19 19 16 12 13 12 12 11 8 7 6 6 8 8 9 11 9 10 8 8 7 7 8 8 5 8
18 18 20 20 20 19 19 19 20 19 18 17 18 18 18 18 19 17 15 13 13 13 11 11 8 9 7 5 3 6 9 3 2 5 1 2 1 2 2 5 7 9 11
18 21 20 20 20 20 20 19 19 19 17 16 15 15 16 16 16 16 16 15 12 9 7 7 6 5 3 5 5 4 4 3 3 4 6 9 11 8 10 6 8 12 11
18 19 20 19 19 20 20 20 19 18 16 15 15 15 14 15 14 16 14 10 9 6 3 2 2 3 5 8 6 5 5 6 5 5 8 8 10 8 6 8 11 11 15
18 19 19 19 19 19 20 20 19 17 16 15 15 14 13 11 12 10 10 7 3 1 4 4 4 5 7 8 8 7 7 5 6 6 7 10 13 10 11 6 12 12 16
18 19 19 18 18 19 18 17 18 17 16 14 14 12 11 9 8 8 6 4 4 6 7 6 7 7 7 8 9 7 6 4 6 6 8 10 14 10 11 13 11 16 17
18 18 18 18 17 17 16 16 15 14 15 14 14 10 8 7 6 5 5 7 9 10 10 9 8 8 8 8 9 8 6 6 8 9 11 10 9 10 10 11 15 14 20
17 17 16 17 17 17 16 15 15 13 13 13 12 9 7 6 6 7 10 10 10 11 11 10 9 8 8 8 9 10 8 9 12 15 12 12 12 12 11 14 17 17 20
15 14 14 16 17 17 16 16 14 14 13 12 11 7 8 8 10 12 11 11 12 12 11 10 10 10 9 10 11 12 11 11 13 19 14 13 14 15 15 16 16 19 20
13 14 15 16 18 16 16 16 15 14 12 12 8 13 17 17 16 15 14 13 13 13 12 12 12 11 12 13 13 13 13 13 13 19 17 16 15 14 16 16 18 19 19
13 15 16 16 17 16 18 17 17 16 16 13 20 21 21 20 19 17 17 16 15 14 14 14 14 14 14 14 14 14 13 14 14 18 18 17 16 16 17 18 18 19 20
14 16 17 17 19 19 18 17 16 15 14 22 23 23 23 22 21 19 18 17 16 16 16 15 15 15 15 15 16 15 14 15 16 17 18 17 17 17 18 18 19 19 19
16 16 17 18 19 19 16 16 16 16 18 24 26 25 24 22 22 20 18 18 17 17 17 17 16 16 15 15 16 16 16 16 16 17 18 18 18 18 18 18 18 18 19
16 18 16 18 19 17 14 15 15 16 21 25 26 27 24 22 22 20 19 20 19 19 18 18 17 16 17 16 17 16 16 16 17 17 19 19 18 18 18 18 18 18 18
16 19 20 17 18 16 14 14 15 18 23 25 27 27 26 23 22 20 21 19 20 18 18 16 16 16 16 16 16 17 17 16 18 18 19 19 18 18 18 18 18 18 17
16 20 19 19 16 16 12 15 18 22 25 25 26 26 27 25 23 21 20 19 18 17 16 16 16 16 17 17 17 17 18 17 18 19 19 19 19 18 18 18 18 17 17
19 18 19 20 19 18 16 19 23 27 26 25 25 25 26 27 25 22 18 15 15 14 13 15 17 17 18 18 18 18 18 19 18 19 19 19 18 18 18 18 17 17 17
16 19 20 19 19 17 17 24 27 27 25 23 22 22 20 18 3 13 13 12 12 10 11 15 17 17 17 18 18 17 15 14 15 9 14 16 17 17 17 18 17 17 17
17 17 19 18 17 17 18 25 26 25 23 22 18 15 12 11 6 7 10 11 10 10 13 15 17 17 17 17 17 16 16 13 9 11 13 15 15 16 17 17 17 17 18
16 15 18 18 15 15 15 24 27 24 22 17 13 11 11 9 5 1 8 11 11 11 14 15 17 17 17 18 17 18 16 13 9 11 12 13 14 14 15 16 17 17 16
12 14 18 16 13 12 13 25 26 24 20 18 16 11 11 9 7 3 1 4 8 8 13 17 19 21 20 18 16 16 16 16 9 9 10 11 12 12 14 15 15 16 16
14 15 17 16 12 12 11 21 29 22 17 14 13 13 10 9 8 8 8 8 1 8 21 23 22 21 21 18 15 14 12 14 14 7 8 9 10 10 12 12 14 14 15
12 15 16 14 12 10 8 9 16 8 9 7 9 13 13 10 10 11 16 21 23 30 31 29 27 25 24 21 21 14 12 11 10 10 6 7 8 8 9 12 12 13 14
13 12 12 11 12 10 9 10 18 13 8 7 8 9 11 10 11 10 10 13 16 32 33 32 29 27 21 22 18 21 17 13 11 11 11 6 6 6 6 8 10 11 12
28 12 9 9 10 10 11 10 12 10 8 11 5 10 12 11 14 11 9 12 16 10 34 31 25 19 14 15 12 15 13 15 14 12 12 10 8 6 5 6 8 9 10
29 21 10 10 9 10 11 11 13 12 10 9 10 8 9 8 12 33 15 11 10 9 12 18 8 10 6 7 10 11 11 12 10 11 12 13 11 10 5 5 6 7 8
Wind_Direction
90 92 95 87 87 82 67 65 70 60 44 46 38 37 40 38 38 36 39 29 21 26 29 31 30 24 19 7 4 6 8 9 11 4 9 7 8 360 359 359 1 0 5
94 94 97 87 82 84 74 71 68 68 60 41 53 43 41 33 37 33 30 22 23 25 24 29 29 31 31 36 40 30 40 35 27 22 360 201 282 209 206 184 163 150 143
93 103 98 96 80 77 79 73 68 62 55 50 37 36 38 34 32 33 32 31 22 20 20 24 29 31 56 147 143 122 151 90 120 134 151 153 155 151 155 162 164 152 150
97 101 102 93 85 84 82 78 77 64 54 49 47 40 34 38 30 34 28 17 16 10 10 32 135 134 151 158 151 148 145 146 125 114 145 139 151 149 137 136 136 144 144
97 105 101 95 90 86 84 81 74 64 55 47 49 39 33 24 26 18 17 6 347 308 182 170 164 162 161 161 158 152 150 142 149 150 145 146 145 146 148 138 142 133 132
102 106 104 96 93 94 87 75 78 67 63 52 45 36 30 10 5 4 347 292 225 196 189 184 177 173 171 170 171 169 164 145 157 159 156 154 148 151 147 143 141 134 128
106 106 104 102 97 92 89 83 71 60 63 51 53 24 0 350 321 305 278 220 204 197 192 189 190 189 185 186 185 184 186 185 177 167 162 163 158 155 153 152 141 139 124
107 107 104 107 102 99 95 84 82 67 64 56 42 13 351 298 294 268 216 211 207 199 198 199 201 199 197 197 196 192 193 187 173 162 165 163 160 159 157 147 138 133 121
107 105 102 107 110 111 106 104 92 85 72 61 42 339 296 278 239 218 217 214 206 205 206 210 208 206 207 203 197 193 190 187 178 157 165 169 160 152 153 145 139 127 120
110 113 115 117 124 114 110 106 98 88 78 72 29 249 215 211 212 213 213 213 213 213 213 211 210 214 209 200 196 196 195 192 185 159 159 159 162 162 152 147 136 128 121
119 123 125 125 125 119 126 119 122 116 111 93 212 205 204 205 205 210 212 216 219 218 214 212 214 212 208 207 202 199 200 192 187 164 159 158 161 159 148 140 132 125 116
133 135 135 133 137 138 133 131 124 113 108 158 203 198 198 204 208 214 218 221 221 218 216 219 221 221 222 213 204 205 205 193 183 168 160 159 156 151 147 137 129 118 112
144 141 143 141 143 141 135 133 131 133 141 171 184 191 197 211 217 220 230 228 226 225 226 228 231 230 226 218 210 206 204 194 187 174 161 155 146 143 139 134 127 118 108
153 155 147 150 148 142 131 133 134 137 153 171 184 192 203 219 222 233 233 230 231 229 234 234 235 236 229 229 216 212 208 202 190 180 156 143 140 135 131 126 121 114 105
162 161 161 151 153 143 138 138 141 150 164 178 191 187 195 227 232 238 234 240 238 249 247 253 248 246 238 237 229 220 218 220 195 181 150 138 136 132 128 122 115 105 100
166 167 163 161 153 149 141 147 153 162 170 173 181 186 199 225 233 243 249 254 258 261 265 263 258 253 241 239 237 230 223 220 208 181 153 135 128 124 121 114 105 96 89
172 167 166 165 162 161 157 160 170 179 177 174 175 174 188 211 234 249 266 280 283 288 292 282 269 263 253 248 239 238 237 218 215 200 136 125 118 114 106 103 96 86 80
173 172 168 165 166 165 164 173 182 181 175 173 167 165 163 157 114 294 296 299 302 310 305 285 274 271 267 263 258 259 269 267 252 23 64 81 86 93 92 84 79 77 73
175 174 171 168 168 168 167 177 180 180 173 170 159 153 146 146 128 313 305 304 308 305 295 284 276 277 277 272 270 272 264 277 329 56 58 66 74 75 76 74 64 65 64
177 177 174 171 170 168 167 176 185 179 176 163 157 155 154 149 140 345 309 301 300 297 288 284 278 276 274 266 266 258 260 276 13 73 56 60 68 70 68 60 57 59 61
183 179 175 173 176 172 171 180 183 181 176 175 172 165 164 160 156 150 329 316 304 301 286 273 263 254 253 258 265 259 260 265 342 76 62 60 69 73 63 56 59 56 55
182 180 177 179 182 181 180 178 195 182 175 173 173 175 172 170 167 161 155 148 124 295 253 245 244 246 248 253 262 275 294 291 299 32 49 56 82 73 56 57 56 56 53
186 181 181 187 193 197 205 182 268 214 181 186 182 182 181 178 176 172 169 174 176 204 212 222 231 237 241 252 254 286 306 321 332 331 58 58 68 75 59 49 55 52 53
182 182 187 198 200 214 216 192 184 187 201 203 195 188 186 187 184 187 182 173 172 209 216 223 236 246 261 260 275 272 289 311 331 341 340 24 42 72 71 56 50 49 50
255 192 218 219 210 227 217 226 198 211 250 285 256 195 193 194 191 257 242 188 181 195 232 244 259 269 281 284 292 299 301 304 312 328 338 348 356 28 56 53 46 45 46
256 261 244 245 237 232 228 231 210 216 246 247 274 227 216 224 266 256 260 240 220 229 262 269 263 276 258 280 290 295 304 309 314 318 323 331 339 354 18 31 34 39 42